Location: Appletree Creek
(38.7363°N, 122.6833°W)
Time: 09:27:14
(UTC+00:00)

FENGYUN 3A - Pass Details

Date: 18 September 2020
Orbit: 824 x 836 km, 98.4° (Epoch: 21 October)

Event Time Altitude Azimuth Distance (km) Brightness Sun altitude
Rises 13:05:25 0° 10° (N) 3,371 7.1 -10.5°
Reaches altitude 10° 13:07:46 10° 8° (N) 2,435 6.3 -10.1°
Maximum altitude 13:13:07 69° 286° (WNW) 883 3.6 -9.0°
Drops below altitude 10° 13:18:28 10° 204° (SSW) 2,426 5.8 -8.0°
Sets 13:20:49 0° 202° (SSW) 3,358 6.5 -7.6°
